Location: Cincinnati Observatory Center
(39.1389°N, 84.4225°W)
Time: 09:30:45
(UTC-05:00)

HST - Visible Passes

Search period start: 23 November 2014 00:00
Search period end: 03 December 2014 00:00
Orbit: 545 x 550 km, 28.5° (Epoch: 21 November)

Date Brightness Start Highest point End Pass type
(mag) Time Alt. Az. Time Alt. Az. Time Alt. Az.
23 Nov 3.1 06:07:06 10° SW 06:09:52 17° S 06:12:38 10° SE visible
24 Nov 3.0 05:59:35 11° SW 06:02:15 18° S 06:05:08 10° SE visible
25 Nov 2.9 05:52:39 14° SSW 05:54:37 19° S 05:57:34 10° SE visible
26 Nov 2.8 05:45:40 16° SSW 05:46:59 19° S 05:49:56 10° SE visible
27 Nov 2.8 05:38:39 18° SSW 05:39:20 18° S 05:42:14 10° SE visible
28 Nov 2.9 05:31:36 17° S 05:31:40 17° S 05:34:27 10° SE visible
29 Nov 3.1 05:24:32 16° S 05:24:32 16° S 05:26:34 10° SSE visible
30 Nov 3.3 05:17:28 13° S 05:17:28 13° S 05:18:34 10° SSE visible
